{"data":{"norad_id":66616,"intl_designator":"2025-270AE","name":"STARLINK-35391","alt_names":[],"object_type":"PAYLOAD","status":"ACTIVE","operator":null,"country":"US","launch_date":"2025-11-22","launch_site_code":"AFETR","launch_vehicle":null,"mission":null,"orbit_class":"UNKNOWN","rcs_meters":null,"size_class":null,"mass_kg":null,"dimensions":null,"purposes":["comms"],"wikipedia_slug":null,"has_3d_model":false,"image_url":null,"decayed_at":null,"tle_current":{"epoch":"2026-09-20T16:13:28.843392Z","epoch_age_seconds":71298,"freshness":"FRESH","line1":"1 66616U 25270AE  26263.67602828  .00012699  00000+0  47002-3 0  9991","line2":"2 66616  43.0043  35.2426 0001538 276.6143  83.4533 15.27591909 47633","mean_motion":15.27591909,"eccentricity":0.0001538,"inclination_deg":43.0043,"raan_deg":35.2426,"arg_perigee_deg":276.6143,"mean_anomaly_deg":83.4533,"bstar":0.00047002,"rev_number":4763,"period_min":94.266013816652,"perigee_km":481.95819150396,"apogee_km":484.06868137821,"semimajor_km":6861.1504364411,"source":"CELESTRAK","updated_at":"2026-09-21T09:00:35.981710Z"}}}